Regional Weather Roundup
Issued by NWS Goodland, KS

Home | Current Version | Previous Version | Graphics & Text | Print | Product List | Glossary On
Versions: 1 2 3 4 5 6 7 8 9 10 11 12 13 14 15 16 17 18 19 20 21 22 23 24 25 26 27 28 29 30 31 32 33 34 35 36 37 38 39 40 41 42 43 44 45 46 47 48 49 50
132
ASUS43 KGLD 280059
RWRGLD

GOODLAND FORECAST AREA HOURLY WEATHER ROUNDUP
NATIONAL WEATHER SERVICE GOODLAND KS
700 PM MDT FRI MAY 27 2016

...OFFICIAL OBSERVATIONS...

CITY           SKY/WX    TMP DP  RH WIND       PRES   REMARKS
GOODLAND KS    CLOUDY    52  48  86 N20G26    29.78R
HILL CITY KS   PTCLDY    66  59  78 N7        29.69R
IMPERIAL NEB   LGT RAIN  53  47  79 NW17      29.79F
MCCOOK NEB     CLOUDY    61  57  87 W9        29.74R
AKRON CO       CLOUDY    54  46  74 N12       29.86R
BURLINGTON CO  MOSUNNY   55  49  80 NE16      29.81S
LIMON CO       CLOUDY    52  43  71 N10       29.90R
$$

...UNOFFICIAL OBSERVATIONS...

CITY           SKY/WX    TMP DP  RH WIND       PRES   REMARKS
GOVE KS          N/A     65  32  29 MISG        N/A
LENORA KS        N/A     63  32  31 MISG        N/A
SHARON SPRINGS   N/A     52  49  90 NW12G21     N/A
KIT CARSON CO    N/A     55  49  80 MISG        N/A
YUMA CO          N/A     59  48  67 NE12G20     N/A
$$




USA.gov is the U.S. government's official web portal to all federal, state and local government web resources and services.